sat.trackr.live / text

‹ back to catalog

STARLINK-37065

NORAD 68083 · 2026-042Q

PAYLOAD ACTIVE UNKNOWN

§ Identity

Operator
Country
US
Launch date
2026-03-04
Launch site
AFETR
Launch vehicle
Mass (kg)
RCS (m²)

Purposes: comms

External: N2YO · Heavens-Above · Gunter

§ Orbital elements

Epoch: 2026-09-20T05:14:17.033280Z

Period
93.85 min
Inclination
53.1600°
Eccentricity
0.0002064
Mean motion
15.34405300 rev/d
Perigee alt
461.3 km
Apogee alt
464.1 km
Semi-major
6,840.8 km
B*
4.4322e-4
RAAN
351.2457°
Arg perigee
85.5297°
Mean anomaly
274.5942°
Rev number
3,214

§ Raw data

STARLINK-370651 68083U 26042Q   26263.21825270  .00014630  00000+0  44322-3 0  99962 68083  53.1600 351.2457 0002064  85.5297 274.5942 15.34405300 32145

JSON: /api/v1/satellites/68083 · /tle

For live sub-satellite position, see the globe view (requires WebGL).

§ Visibility from observer

Set your observer location to see the next 7 days of passes ≥ 10°. The values pass through the URL so the page stays shareable.

No JS? Fill the form by hand. The geolocation button needs JavaScript.